K5EBQ Weather Reports


Display with metric or nautical units.
time (UTC)temp
F
wind
direction
speed
MPH
gust
MPH
rain 1hr
in
rain 24hr
in
rain mn
in
humidity
%
barometer
mb
20260504221558 80 107 3.0 30.0 0.00 0.00 0.00 66 1008.9
20260504220118 80 225 10.0 25.0 0.00 0.00 0.00 64 1008.9
20260504214558 81 224 10.0 41.0 0.00 0.00 0.00 61 1009.1
20260504213059 81 183 33.0 105.0 0.00 0.00 0.00 61 1009.2
20260504211556 82 227 11.0 26.0 0.00 0.00 0.00 60 1009.3
20260504210053 82 195 0.0 29.0 0.00 0.00 0.00 59 1009.4
20260504204550 83 206 12.0 44.0 0.00 0.00 0.00 58 1009.7
20260504203050 82 209 19.0 32.0 0.00 0.00 0.00 58 1009.7
20260504201548 83 206 8.0 29.0 0.00 0.00 0.00 58 1010.1
20260504200050 83 189 2.0 38.0 0.00 0.00 0.00 58 1010.5
20260504194546 83 171 18.0 48.0 0.00 0.00 0.00 55 1010.6
20260504193041 81 217 21.0 73.0 0.00 0.00 0.00 58 1010.9
20260504191551 82 202 13.0 29.0 0.00 0.00 0.00 57 1011.1
20260504190043 82 222 11.0 24.0 0.00 0.00 0.00 57 1011.2
20260504184543 82 235 32.0 72.0 0.00 0.00 0.00 57 1011.5
20260504183041 82 238 27.0 42.0 0.00 0.00 0.00 56 1011.6
20260504181531 81 157 19.0 47.0 0.00 0.00 0.00 58 1011.7
20260504180029 81 192 13.0 31.0 0.00 0.00 0.00 58 1011.9
20260504174526 81 205 25.0 32.0 0.00 0.00 0.00 58 1012.1
20260504173026 80 146 15.0 29.0 0.00 0.00 0.00 58 1012.3
20260504171521 79 227 11.0 33.0 0.00 0.00 0.00 61 1012.7
20260504150103 75 225 2.0 47.0 0.00 0.00 0.00 66 1013.6
20260504081506 61 191 0.0 0.0 0.00 0.00 0.00 81 1014.0
20260504044546 64 191 0.0 0.0 0.00 0.00 0.00 72 1016.2
20260504043039 65 191 0.0 0.0 0.00 0.00 0.00 70 1016.1
20260504041537 66 191 0.0 0.0 0.00 0.00 0.00 67 1016.1
20260504040041 67 191 0.0 0.0 0.00 0.00 0.00 65 1016.3
20260504034553 67 191 0.0 0.0 0.00 0.00 0.00 63 1016.2
20260504033041 68 191 0.0 0.0 0.00 0.00 0.00 62 1016.3
20260504031536 68 191 0.0 0.0 0.00 0.00 0.00 61 1016.2
20260504030043 69 186 0.0 0.0 0.00 0.00 0.00 60 1016.1
20260504024535 69 127 0.0 0.0 0.00 0.00 0.00 58 1015.8
20260504023036 70 169 0.0 0.0 0.00 0.00 0.00 56 1015.7
20260504021534 71 223 0.0 0.0 0.00 0.00 0.00 55 1015.8
20260504020037 71 98 0.0 0.0 0.00 0.00 0.00 54 1015.6
20260504014541 71 183 0.0 0.0 0.00 0.00 0.00 53 1015.6
20260504013033 72 157 0.0 0.0 0.00 0.00 0.00 53 1015.4
20260504011531 73 234 0.0 0.0 0.00 0.00 0.00 52 1015.3
20260504010031 73 161 0.0 0.0 0.00 0.00 0.00 51 1015.3
20260504004532 74 122 0.0 0.0 0.00 0.00 0.00 49 1015.2
20260504003034 75 121 0.0 0.0 0.00 0.00 0.00 48 1015.3
20260504001529 76 170 0.0 0.0 0.00 0.00 0.00 46 1015.3
20260504000029 77 152 0.0 0.0 0.00 0.00 0.00 44 1015.4
20260503234537 78 173 0.0 0.0 0.00 0.00 0.00 42 1015.4
20260503233026 78 63 0.0 0.0 0.00 0.00 0.00 39 1015.4
20260503231525 79 128 0.0 0.0 0.00 0.00 0.00 36 1015.6
20260503230024 79 77 0.0 0.0 0.00 0.00 0.00 37 1015.5
20260503224522 79 184 0.0 0.0 0.00 0.00 0.00 39 1015.8
20260503223023 79 105 0.0 0.0 0.00 0.00 0.00 38 1015.8